FW2512 Weather Reports


time (UTC)temp
C
wind
direction
speed
KPH
gust
KPH
rain 1hr
cm
rain 24hr
cm
rain mn
cm
humidity
%
barometer
mb
20260906051530 21 37 0.0 0.0 0.00 0.20 0.20 82 1012.6
20260906050031 21 36 0.0 0.0 0.00 0.20 0.20 82 1012.8
20260906044530 21 36 0.0 0.0 0.00 0.20 0.20 81 1012.6
20260906043032 21 36 0.0 0.0 0.00 0.20 0.20 81 1012.7
20260906041535 21 34 0.0 0.0 0.00 0.20 0.20 81 1012.9
20260906040035 22 34 0.0 0.0 0.00 0.20 0.20 81 1012.9
20260906034532 22 125 0.0 0.0 0.00 0.20 0.20 81 1013.0
20260906033028 22 125 0.0 0.0 0.00 0.20 0.20 81 1013.1
20260906031548 22 125 0.0 0.0 0.00 0.20 0.20 81 1012.9
20260906030028 22 121 0.0 1.6 0.00 0.20 0.20 82 1013.0
20260906024532 22 121 0.0 3.2 0.00 0.20 0.20 80 1012.8
20260906023026 22 121 0.0 1.6 0.00 0.20 0.20 76 1012.7
20260906021527 22 124 0.0 1.6 0.00 0.20 0.20 75 1012.5
20260906020027 22 124 0.0 4.8 0.00 0.20 0.20 74 1012.7
20260906014527 23 130 0.0 0.0 0.00 0.20 0.20 72 1012.5
20260906013026 23 130 0.0 0.0 0.00 0.20 0.20 71 1012.4
20260906011526 23 130 0.0 0.0 0.00 0.20 0.20 69 1012.3
20260906010026 23 130 0.0 0.0 0.00 0.20 0.20 69 1012.1
20260906004525 23 140 0.0 3.2 0.00 0.20 0.20 68 1012.2
20260906003025 24 321 0.0 1.6 0.00 0.20 0.20 68 1012.0
20260906001524 24 321 0.0 0.0 0.00 0.20 0.20 67 1011.6
20260906000025 25 321 0.0 0.0 0.00 0.20 0.20 67 1011.6
20260905234524 25 320 0.0 0.0 0.00 0.20 0.20 66 1011.4
20260905233023 26 321 0.0 0.0 0.00 0.20 0.20 65 1011.4
20260905231533 26 319 0.0 0.0 0.00 0.20 0.20 63 1011.3
20260905230025 27 319 0.0 0.0 0.00 0.20 0.20 60 1011.3
20260905224624 28 319 0.0 0.0 0.00 0.20 0.20 57 1011.2
20260905223023 28 319 0.0 0.0 0.00 0.20 0.20 56 1011.1
20260905221523 28 300 0.0 6.4 0.00 0.20 0.20 59 1011.2
20260905220021 27 235 1.6 6.4 0.00 0.20 0.20 59 1011.1
20260905214521 27 225 3.2 8.0 0.00 0.20 0.20 60 1011.3
20260905213020 26 271 3.2 9.7 0.00 0.20 0.20 61 1011.6
20260905211519 26 202 3.2 6.4 0.00 0.20 0.20 64 1011.5
20260905210019 25 279 0.0 4.8 0.00 0.20 0.20 65 1011.5
20260905204518 24 159 0.0 4.8 0.00 0.20 0.20 68 1012.0
20260905203017 23 22 0.0 0.0 0.00 0.20 0.20 76 1012.2
20260905201516 22 15 0.0 4.8 0.00 0.20 0.20 77 1012.3
20260905200016 22 20 1.6 4.8 0.00 0.20 0.20 76 1012.4
20260905194516 22 30 0.0 8.0 0.03 0.20 0.20 74 1012.5
20260905193015 22 155 6.4 14.5 0.03 0.20 0.20 75 1012.9
20260905191514 22 9 1.6 8.0 0.18 0.20 0.20 70 1012.7
20260905190026 22 22 1.6 8.0 0.20 0.20 0.20 68 1012.7
20260905184514 22 351 1.6 8.0 0.18 0.18 0.18 66 1012.3
20260905183016 23 278 0.0 4.8 0.18 0.18 0.18 63 1012.8
20260905181513 27 314 1.6 24.1 0.03 0.03 0.03 46 1012.7
20260905180011 34 37 6.4 25.7 0.00 0.00 0.00 37 1012.6
20260905174507 34 288 1.6 9.7 0.00 0.00 0.00 39 1012.5
20260905173004 33 333 0.0 3.2 0.00 0.00 0.00 43 1013.1
20260905171502 33 239 0.0 6.4 0.00 0.00 0.00 41 1013.0
20260905170001 33 309 0.0 8.0 0.00 0.00 0.00 43 1013.1
20260905164603 33 323 0.0 3.2 0.00 0.00 0.00 45 1013.1
20260905163056 33 334 0.0 8.0 0.00 0.00 0.00 45 1013.6
20260905161554 33 232 0.0 1.6 0.00 0.00 0.00 45 1013.7
20260905160058 32 342 0.0 0.0 0.00 0.00 0.00 47 1013.8
20260905154555 32 238 0.0 0.0 0.00 0.00 0.00 47 1013.7
20260905153047 31 284 0.0 0.0 0.00 0.00 0.00 51 1013.9
20260905151545 31 265 0.0 1.6 0.00 0.00 0.00 54 1013.7
20260905150044 30 223 0.0 3.2 0.00 0.00 0.00 60 1013.8
20260905144540 30 231 0.0 3.2 0.00 0.00 0.00 60 1013.9
20260905143035 29 235 0.0 0.0 0.00 0.00 0.00 61 1014.1
20260905141533 28 211 0.0 0.0 0.00 0.00 0.00 63 1014.0
20260905140032 28 188 0.0 6.4 0.00 0.00 0.00 65 1014.0
20260905134530 28 168 0.0 0.0 0.00 0.00 0.00 64 1014.0
20260905133028 27 171 0.0 0.0 0.00 0.00 0.00 66 1014.0
20260905131522 26 252 0.0 0.0 0.00 0.00 0.00 70 1014.1
20260905130019 25 61 0.0 0.0 0.00 0.00 0.00 74 1014.1
20260905124515 23 67 0.0 0.0 0.00 0.00 0.00 77 1014.1
20260905123010 23 66 0.0 0.0 0.00 0.00 0.00 82 1014.1
20260905121508 22 63 0.0 0.0 0.00 0.00 0.00 83 1014.0
20260905120014 22 59 0.0 0.0 0.00 0.00 0.00 82 1013.9
20260905114504 21 59 0.0 0.0 0.00 0.00 0.00 82 1013.7
20260905113003 21 59 0.0 0.0 0.00 0.00 0.00 82 1013.5
20260905111653 21 59 0.0 0.0 0.00 0.00 0.00 82 1013.2
20260905110100 21 59 0.0 0.0 0.00 0.00 0.00 82 1013.1
20260905104559 21 59 0.0 0.0 0.00 0.00 0.00 82 1013.0
20260905103102 21 59 0.0 0.0 0.00 0.00 0.00 81 1013.0
20260905101556 21 59 0.0 0.0 0.00 0.00 0.00 81 1013.0
20260905100058 21 59 0.0 0.0 0.00 0.00 0.00 81 1013.0
20260905094553 22 59 0.0 0.0 0.00 0.00 0.00 80 1012.9
20260905093107 22 59 0.0 0.0 0.00 0.00 0.00 80 1012.8
20260905091555 22 59 0.0 0.0 0.00 0.00 0.00 80 1012.8
20260905090052 22 59 0.0 0.0 0.00 0.00 0.00 79 1012.8
20260905084553 22 59 0.0 0.0 0.00 0.00 0.00 80 1013.0
20260905083049 22 59 0.0 0.0 0.00 0.00 0.00 77 1013.1
20260905081549 22 59 0.0 0.0 0.00 0.00 0.00 76 1013.1
20260905080049 22 59 0.0 0.0 0.00 0.00 0.00 76 1013.3
20260905074547 22 59 0.0 0.0 0.00 0.00 0.00 75 1013.5
20260905073047 22 59 0.0 0.0 0.00 0.00 0.00 75 1013.5
20260905071548 22 59 0.0 0.0 0.00 0.00 0.00 73 1013.5
20260905070053 23 60 0.0 0.0 0.00 0.00 0.00 72 1013.8
20260905064558 23 71 0.0 0.0 0.00 0.00 0.00 72 1014.0
20260905063043 23 77 0.0 0.0 0.00 0.00 0.00 72 1014.2
20260905061542 23 72 0.0 0.0 0.00 0.00 0.00 72 1014.3
20260905060043 23 76 0.0 0.0 0.00 0.00 0.00 71 1014.6
20260905054548 23 74 0.0 0.0 0.00 0.00 0.00 71 1014.9
20260905053043 23 70 0.0 0.0 0.00 0.00 0.00 71 1015.0